Home   Weather   Nîmes   Past weeks

Flag for France Past Weather in Nîmes, Languedoc-Roussillon, France — Yesterday and Last 2 Weeks

Now
45 °F

Clear.


Feels Like: 40 °F
Forecast: 41 / 62 °F
Wind: 9 mph from North

Location: Nimes / Garons

Current Time: Apr 27, 2017 at 5:28:18 am

Latest Report: Apr 27, 2017 at 4:30 am


Visibility: 10 mi

Pressure: 29.89 "Hg

Humidity: 81%

Dew Point: 39 °F

Location of NîmesLocation

Past Weather in Nîmes — Graph

°F

Nîmes Temperature Yesterday

Maximum temperature yesterday: 59 °F (at 2:00 pm)
Minimum temperature yesterday: 45 °F (at 11:30 pm)
Average temperature yesterday: 53 °F

High & Low Weather Summary for the Past Weeks

 TemperatureHumidityPressure
High79 °F (Apr 13, 4:00 pm)100% (Apr 25, 2:00 am)30.39 "Hg (Apr 25, 2:00 am)
Low39 °F (Apr 22, 7:00 am)16% (Apr 18, 5:30 pm)29.68 "Hg (Apr 26, 1:00 am)
Average58 °F54%30.06 "Hg
* Reported Apr 12 3:00 am — Apr 27 3:30 am, Nîmes, Weather by CustomWeather, © 2017

Note: Actual official high and low records may vary slightly from our data, if they occured in-between our weather recording intervals... More about our weather records

Advertising

Nîmes Weather History for the Previous 24 Hours

Scroll right to see more
 ConditionsComfort  
Time TempWeatherWind HumidityBarometerVisibility
3:30 am
Thu, Apr 27
45 °FPassing clouds.12 mph81%29.89 "HgN/A
3:00 am45 °FClear.13 mph81%29.86 "Hg10 mi
2:30 am45 °FClear.14 mph81%29.89 "Hg10 mi
2:00 am45 °FPassing clouds.9 mph87%29.89 "HgN/A
1:30 am45 °FPassing clouds.9 mph87%29.89 "HgN/A
1:00 am45 °FClear.10 mph87%29.89 "Hg10 mi
12:30 am45 °FClear.10 mph87%29.89 "Hg10 mi
11:30 pm
Wed, Apr 26
45 °FClear.12 mph87%29.89 "Hg10 mi
11:00 pm46 °FClear.13 mph87%29.89 "Hg10 mi
10:30 pm46 °FLight rain. Clear.12 mph93%29.89 "HgN/A
10:00 pm48 °FLight rain. Clear.8 mph87%29.86 "HgN/A
9:30 pm48 °FLight rain. Mostly cloudy.10 mph94%29.86 "HgN/A
8:30 pm50 °FLight rain. Cloudy.7 mph94%29.83 "HgN/A
8:00 pm50 °FLight rain. Broken clouds.13 mph88%29.83 "HgN/A
7:30 pm54 °FLight rain. Partly sunny.12 mph82%29.80 "HgN/A
7:00 pm57 °FMostly cloudy.3 mph72%29.80 "HgN/A
6:30 pm57 °FOvercast.2 mph77%29.77 "HgN/A
6:00 pm59 °FMore clouds than sun.No wind68%29.77 "HgN/A
5:30 pm59 °FMostly cloudy.No wind72%29.77 "HgN/A
5:00 pm59 °FLight rain. Mostly cloudy.1 mph72%29.77 "HgN/A
4:30 pm57 °FOvercast.2 mph67%29.77 "HgN/A
4:00 pm57 °FLight rain. Clear.3 mph72%29.77 "HgN/A
3:30 pm59 °FBroken clouds.3 mph68%29.77 "HgN/A
3:00 pm59 °FLight rain. Broken clouds.3 mph68%29.80 "HgN/A
2:00 pm59 °FCool.6 mph68%29.77 "HgN/A
1:30 pm57 °FPassing clouds.7 mph72%29.77 "HgN/A
1:00 pm57 °FPassing clouds.7 mph72%29.77 "HgN/A
12:30 pm55 °FPartly sunny.8 mph72%29.77 "HgN/A
12:00 pm55 °FPartly sunny.7 mph82%29.77 "HgN/A
11:30 am55 °FMostly cloudy.6 mph82%29.77 "HgN/A
11:00 am57 °FPartly sunny.6 mph82%29.77 "HgN/A
10:30 am55 °FSunny.8 mph82%29.74 "Hg10 mi
10:00 am55 °FSunny.6 mph82%29.74 "Hg10 mi
9:30 am55 °FPassing clouds.5 mph88%29.74 "HgN/A
9:00 am54 °FSunny.7 mph88%29.74 "Hg10 mi
8:30 am52 °FSunny.3 mph94%29.74 "Hg10 mi
8:00 am52 °FSunny.2 mph94%29.74 "Hg10 mi
7:30 am50 °FSunny.5 mph100%29.71 "Hg10 mi
7:00 am50 °FPassing clouds.3 mph100%29.71 "HgN/A
6:30 am50 °FClear.2 mph94%29.68 "Hg10 mi
6:00 am50 °FMostly cloudy.3 mph94%29.68 "HgN/A
5:30 am50 °FPassing clouds.3 mph100%29.71 "HgN/A
5:00 am50 °FLight rain. Overcast.5 mph100%29.71 "HgN/A
Weather by CustomWeather, © 2017

See weather overviewHow to use our weather pages